Aérodrome :
LOGIN :

S'inscrire | Disclaimer

   EN    FR    IT 

 










Légende :    VFR   VFR Marginal   IFR   IFR Intensif   IFR Très Intensif
Visi : 
Plafond : 
>= 8 km
>= 3000ft
5 à 8 km
1000 à 3000 ft
1500m à 5 km
500 à 1000 ft
800 à 1500m
200 à 500 ft
< 800m
< 200 ft
Symboles :   Orages  Brouillard  Fortes neiges  Fortes précipitations  Vent > 20 kt
SIGMETs :   Divers  Orages  Givrage  Turbulence  Onde Orograph.  Cendres Volcan.







- Altitude de l'aérodrome : 3360 ft
- Code IATA : QSF


DAAS - 8 Mai 45

DERNIER METAR :
  • 281000Z 24016KT CAVOK 30/05 Q1017

METARs EXPIRÉS :
  • 280900Z 24016KT CAVOK 29/06 Q1017
  • 280800Z 26015KT 8000 FEW030 28/07 Q1016

TAF TAF DAAS
Valide du 28 à 06h jusqu'au 29 à 06h UTC


280500Z 2806/2906 23009KT 9999 SCT030
PROB40
TEMPO 2806/2809 FEW026CB
BECMG 2807/2809 28014KT
PROB40
TEMPO 2810/2818 30015G25KT FEW026CB
BECMG 2821/2823 34008KT
Pas de NOTAMs connus pour ce terrain.



MET'MAP, la Météo Aéronautique d'un coup d'oeil ! - Copyright ORBIFLY Décembre 2007 - Disclaimer

ORBIFLY MET'MAP TEAM :

Programmation & Développement : Alexandra Zaïnal
Conception & Développement : Baudouin d'Aumeries
Co-Programmation & Développement : Marc-Olivier Méhu
Soutien technique & logistique : Manuel Goepfert

Contact : metmap@orbifly.com




SOURCES & CREDITS :

   NOAA